Hourly Weather Bolshie Shidy

Today, 18 June, Friday

Time Temperature Precipitation Wind Pressure Humidity
00:00 +13°C° 0 mm 3 mps 750 mmHg 72%
01:00 +13°C° 0 mm 2 mps 750 mmHg 76%
02:00 +12°C° 0 mm 2 mps 750 mmHg 80%
03:00 +10°C° 0 mm 2 mps 751 mmHg 83%
04:00 +9°C° 0 mm 2 mps 751 mmHg 86%
05:00 +11°C° 0 mm 3 mps 752 mmHg 80%
06:00 +13°C° 0 mm 3 mps 752 mmHg 73%
07:00 +14°C° 0 mm 4 mps 752 mmHg 67%
08:00 +15°C° 0 mm 4 mps 753 mmHg 61%
09:00 +15°C° 0 mm 5 mps 753 mmHg 56%
10:00 +16°C° 0 mm 5 mps 754 mmHg 51%
11:00 +17°C° 0 mm 5 mps 754 mmHg 47%
12:00 +19°C° 0 mm 6 mps 754 mmHg 43%
13:00 +20°C° 0 mm 6 mps 754 mmHg 39%
14:00 +20°C° 0 mm 6 mps 754 mmHg 39%
15:00 +20°C° 0 mm 5 mps 754 mmHg 38%
16:00 +20°C° 0 mm 5 mps 755 mmHg 38%
17:00 +19°C° 0 mm 5 mps 755 mmHg 43%
18:00 +18°C° 0 mm 4 mps 755 mmHg 48%
19:00 +18°C° 0 mm 3 mps 756 mmHg 53%
20:00 +16°C° 0 mm 3 mps 756 mmHg 59%
21:00 +14°C° 0 mm 2 mps 756 mmHg 66%
22:00 +12°C° 0 mm 1 mps 756 mmHg 73%
23:00 +11°C° 0 mm 1 mps 757 mmHg 73%

Tomorrow, 19 June, Saturday

Time Temperature Precipitation Wind Pressure Humidity
00:00 +11°C° 0 mm 1 mps 757 mmHg 74%
01:00 +11°C° 0 mm 1 mps 757 mmHg 74%
02:00 +10°C° 0 mm 1 mps 757 mmHg 75%
03:00 +10°C° 0 mm 1 mps 757 mmHg 76%
04:00 +10°C° 0 mm 1 mps 757 mmHg 77%
05:00 +12°C° 0 mm 1 mps 757 mmHg 72%
06:00 +13°C° 0 mm 2 mps 757 mmHg 68%
07:00 +15°C° 0 mm 2 mps 757 mmHg 63%
08:00 +15°C° 0 mm 2 mps 757 mmHg 68%
09:00 +15°C° 0 mm 2 mps 757 mmHg 73%
10:00 +15°C° 0 mm 2 mps 757 mmHg 77%
11:00 +15°C° 0.2 mm 2 mps 757 mmHg 80%
12:00 +15°C° 0.2 mm 2 mps 756 mmHg 82%
13:00 +15°C° 0.2 mm 1 mps 756 mmHg 84%
14:00 +18°C° 0.1 mm 2 mps 755 mmHg 79%
15:00 +20°C° 0.1 mm 3 mps 754 mmHg 73%
16:00 +22°C° 0.1 mm 5 mps 754 mmHg 67%
17:00 +21°C° 0.4 mm 5 mps 753 mmHg 74%
18:00 +21°C° 0.4 mm 4 mps 753 mmHg 80%
19:00 +20°C° 0.4 mm 4 mps 752 mmHg 87%
20:00 +20°C° 0.7 mm 4 mps 752 mmHg 89%
21:00 +19°C° 0.7 mm 4 mps 752 mmHg 92%
22:00 +19°C° 0.7 mm 4 mps 752 mmHg 94%
23:00 +19°C° 0.2 mm 4 mps 751 mmHg 95%

Day after tomorrow, 20 June, Sunday

Time Temperature Precipitation Wind Pressure Humidity
00:00 +19°C° 0.2 mm 4 mps 751 mmHg 95%
01:00 +18°C° 0.2 mm 4 mps 751 mmHg 96%
02:00 +18°C° 0.1 mm 4 mps 751 mmHg 96%
03:00 +18°C° 0.1 mm 3 mps 751 mmHg 97%
04:00 +18°C° 0.1 mm 3 mps 751 mmHg 97%
05:00 +18°C° 0.2 mm 3 mps 751 mmHg 96%
06:00 +19°C° 0.2 mm 3 mps 751 mmHg 95%
07:00 +20°C° 0.2 mm 3 mps 751 mmHg 94%
08:00 +22°C° 0 mm 4 mps 751 mmHg 83%
09:00 +25°C° 0 mm 5 mps 751 mmHg 72%
10:00 +26°C° 0 mm 6 mps 751 mmHg 61%
11:00 +27°C° 0 mm 6 mps 751 mmHg 56%
12:00 +27°C° 0 mm 7 mps 751 mmHg 51%
13:00 +28°C° 0 mm 7 mps 751 mmHg 45%
14:00 +27°C° 0 mm 7 mps 752 mmHg 45%
15:00 +26°C° 0 mm 6 mps 752 mmHg 44%
16:00 +26°C° 0 mm 6 mps 752 mmHg 44%
17:00 +23°C° 0 mm 5 mps 753 mmHg 47%
18:00 +22°C° 0 mm 5 mps 753 mmHg 51%
19:00 +20°C° 0 mm 4 mps 753 mmHg 54%
20:00 +18°C° 0 mm 4 mps 754 mmHg 58%
21:00 +16°C° 0 mm 3 mps 754 mmHg 61%
22:00 +14°C° 0 mm 2 mps 755 mmHg 65%
23:00 +13°C° 0 mm 2 mps 755 mmHg 64%

21 June, Monday

Time Temperature Precipitation Wind Pressure Humidity
00:00 +12°C° 0 mm 2 mps 755 mmHg 62%
01:00 +12°C° 0 mm 2 mps 755 mmHg 61%
02:00 +10°C° 0 mm 2 mps 756 mmHg 61%
03:00 +10°C° 0 mm 2 mps 756 mmHg 62%
04:00 +10°C° 0 mm 1 mps 757 mmHg 63%
05:00 +12°C° 0 mm 2 mps 757 mmHg 59%
06:00 +14°C° 0 mm 2 mps 757 mmHg 56%
07:00 +16°C° 0 mm 2 mps 757 mmHg 52%
08:00 +18°C° 0 mm 2 mps 757 mmHg 47%
09:00 +19°C° 0 mm 2 mps 757 mmHg 42%
10:00 +21°C° 0 mm 2 mps 757 mmHg 37%
11:00 +23°C° 0 mm 2 mps 757 mmHg 37%
12:00 +23°C° 0 mm 2 mps 757 mmHg 37%
13:00 +24°C° 0 mm 3 mps 757 mmHg 37%
14:00 +24°C° 0 mm 3 mps 756 mmHg 39%
15:00 +25°C° 0 mm 3 mps 756 mmHg 42%
16:00 +25°C° 0 mm 3 mps 756 mmHg 44%
17:00 +24°C° 0 mm 2 mps 756 mmHg 51%
18:00 +23°C° 0 mm 2 mps 755 mmHg 59%
19:00 +21°C° 0 mm 2 mps 755 mmHg 66%
20:00 +20°C° 0 mm 2 mps 755 mmHg 69%
21:00 +18°C° 0 mm 2 mps 755 mmHg 71%
22:00 +17°C° 0 mm 2 mps 755 mmHg 74%
23:00 +16°C° 0.1 mm 2 mps 754 mmHg 79%

22 June, Tuesday

Time Temperature Precipitation Wind Pressure Humidity
00:00 +15°C° 0.1 mm 2 mps 754 mmHg 85%
01:00 +15°C° 0.1 mm 2 mps 753 mmHg 90%
02:00 +15°C° 0.3 mm 2 mps 753 mmHg 92%
03:00 +15°C° 0.3 mm 2 mps 753 mmHg 94%
04:00 +15°C° 0.3 mm 2 mps 753 mmHg 96%
05:00 +16°C° 0.8 mm 2 mps 753 mmHg 96%
06:00 +17°C° 0.8 mm 2 mps 753 mmHg 96%
07:00 +19°C° 0.8 mm 2 mps 753 mmHg 96%
08:00 +21°C° 0.3 mm 3 mps 752 mmHg 90%
09:00 +22°C° 0.3 mm 3 mps 752 mmHg 85%
10:00 +25°C° 0.3 mm 3 mps 752 mmHg 79%
11:00 +27°C° 0.1 mm 4 mps 751 mmHg 72%
12:00 +28°C° 0.1 mm 5 mps 751 mmHg 66%
13:00 +30°C° 0.1 mm 6 mps 751 mmHg 60%
14:00 +29°C° 0.4 mm 5 mps 751 mmHg 63%
15:00 +28°C° 0.4 mm 5 mps 751 mmHg 67%
16:00 +27°C° 0.4 mm 5 mps 751 mmHg 71%
17:00 +27°C° 0.3 mm 4 mps 751 mmHg 74%
18:00 +26°C° 0.3 mm 3 mps 751 mmHg 78%
19:00 +25°C° 0.3 mm 2 mps 751 mmHg 81%
20:00 +24°C° 0 mm 2 mps 751 mmHg 83%
21:00 +21°C° 0 mm 2 mps 751 mmHg 85%
22:00 +20°C° 0 mm 2 mps 751 mmHg 88%
23:00 +19°C° 0 mm 2 mps 752 mmHg 90%

23 June, Wednesday

Time Temperature Precipitation Wind Pressure Humidity
00:00 +18°C° 0 mm 2 mps 752 mmHg 92%
01:00 +17°C° 0 mm 2 mps 752 mmHg 94%
02:00 +17°C° 0 mm 2 mps 752 mmHg 95%
03:00 +16°C° 0 mm 2 mps 753 mmHg 96%
04:00 +15°C° 0 mm 2 mps 753 mmHg 96%
05:00 +16°C° 0 mm 3 mps 754 mmHg 92%
06:00 +17°C° 0 mm 3 mps 754 mmHg 87%
07:00 +17°C° 0 mm 3 mps 754 mmHg 82%
08:00 +19°C° 0 mm 3 mps 754 mmHg 72%
09:00 +20°C° 0 mm 3 mps 754 mmHg 62%
10:00 +22°C° 0 mm 3 mps 754 mmHg 53%
11:00 +24°C° 0 mm 2 mps 754 mmHg 49%
12:00 +24°C° 0 mm 2 mps 754 mmHg 45%
13:00 +25°C° 0 mm 2 mps 754 mmHg 41%
14:00 +26°C° 0 mm 2 mps 754 mmHg 41%
15:00 +26°C° 0 mm 3 mps 753 mmHg 42%
16:00 +26°C° 0 mm 3 mps 753 mmHg 42%
17:00 +25°C° 0 mm 3 mps 753 mmHg 49%
18:00 +22°C° 0 mm 4 mps 753 mmHg 55%
19:00 +21°C° 0 mm 4 mps 753 mmHg 62%
20:00 +19°C° 0 mm 3 mps 753 mmHg 67%
21:00 +17°C° 0 mm 2 mps 754 mmHg 73%
22:00 +15°C° 0 mm 2 mps 754 mmHg 79%
23:00 +15°C° 0 mm 2 mps 754 mmHg 79%
Show more